sat.trackr.live / text

‹ back to catalog

ONEWEB-0086

NORAD 45456 · 2020-020AJ

PAYLOAD ACTIVE UNKNOWN

§ Identity

Operator
Country
UK
Launch date
2020-03-21
Launch site
TYMSC
Launch vehicle
Mass (kg)
RCS (m²)

Purposes: comms

External: N2YO · Heavens-Above · Gunter

§ Orbital elements

Epoch: 2026-05-25T02:38:37.936320Z

Period
109.80 min
Inclination
87.8921°
Eccentricity
0.0001632
Mean motion
13.11417773 rev/d
Perigee alt
1,216.4 km
Apogee alt
1,218.9 km
Semi-major
7,595.8 km
B*
1.2421e-3
RAAN
25.6516°
Arg perigee
57.1720°
Mean anomaly
302.9564°
Rev number
29,958

§ Raw data

ONEWEB-00861 45456U 20020AJ  26145.11016130  .00000453  00000+0  12421-2 0  99922 45456  87.8921  25.6516 0001632  57.1720 302.9564 13.11417773299587

JSON: /api/v1/satellites/45456 · /tle

For live sub-satellite position, see the globe view (requires WebGL).

§ Visibility from observer

Set your observer location to see the next 7 days of passes ≥ 10°. The values pass through the URL so the page stays shareable.

No JS? Fill the form by hand. The geolocation button needs JavaScript.